<?xml version="1.0" encoding="UTF-8" standalone="no" ?><gpx xmlns="http://www.topografix.com/GPX/1/1" xmlns:gpxx="http://www.garmin.com/xmlschemas/GpxExtensions/v3" xmlns:wptx1="http://www.garmin.com/xmlschemas/WaypointExtension/v1" xmlns:gpxtpx="http://www.garmin.com/xmlschemas/TrackPointExtension/v1" creator="GuideVTT.com" version="1.1" xmlns:xsi="http://www.w3.org/2001/XMLSchema-instance" xsi:schemaLocation="http://www.topografix.com/GPX/1/1 http://www.topografix.com/GPX/1/1/gpx.xsd http://www.garmin.com/xmlschemas/GpxExtensions/v3 http://www8.garmin.com/xmlschemas/GpxExtensionsv3.xsd http://www.garmin.com/xmlschemas/WaypointExtension/v1 http://www8.garmin.com/xmlschemas/WaypointExtensionv1.xsd http://www.garmin.com/xmlschemas/TrackPointExtension/v1 http://www.garmin.com/xmlschemas/TrackPointExtensionv1.xsd">
<metadata><link href="http://www.garmin.com"><text>Garmin International</text></link><time>2013-06-22T15:13:50Z</time></metadata>
<trk><name>saillon-fully-saillon.gpx</name><extensions><gpxx:TrackExtension><gpxx:DisplayColor>Cyan</gpxx:DisplayColor></gpxx:TrackExtension></extensions><trkseg>
<trkpt lat="46.16934640" lon="7.17898399"><ele>520.7799681408</ele><time>2008-09-14T16:52:44Z</time></trkpt>
<trkpt lat="46.16908190" lon="7.17782051"><ele>519.7815552024</ele><time>2008-09-14T16:52:44Z</time></trkpt>
<trkpt lat="46.16846348" lon="7.17799477"><ele>517.7828980872</ele><time>2008-09-14T16:52:44Z</time></trkpt>
<trkpt lat="46.16843817" lon="7.17734401"><ele>517.7835082968</ele><time>2008-09-14T16:52:44Z</time></trkpt>
<trkpt lat="46.16810496" lon="7.17734562"><ele>517.7843016912</ele><time>2008-09-14T16:52:44Z</time></trkpt>
<trkpt lat="46.16730618" lon="7.17166295"><ele>515.7909544968</ele><time>2008-09-14T16:52:44Z</time></trkpt>
<trkpt lat="46.16709092" lon="7.17121869"><ele>515.791870116</ele><time>2008-09-14T16:52:44Z</time></trkpt>
<trkpt lat="46.16584953" lon="7.16964906"><ele>517.7961425616</ele><time>2008-09-14T16:52:44Z</time></trkpt>
<trkpt lat="46.16339164" lon="7.16698946"><ele>518.804260332</ele><time>2008-09-14T16:52:44Z</time></trkpt>
<trkpt lat="46.16222243" lon="7.16576221"><ele>518.808044424</ele><time>2008-09-14T16:52:44Z</time></trkpt>
<trkpt lat="46.16172120" lon="7.16518243"><ele>518.8097534376</ele><time>2008-09-14T16:52:44Z</time></trkpt>
<trkpt lat="46.16092916" lon="7.16248051"><ele>516.8139038352</ele><time>2008-09-14T16:52:44Z</time></trkpt>
<trkpt lat="46.16014003" lon="7.16097745"><ele>516.8170164528</ele><time>2008-09-14T16:52:44Z</time></trkpt>
<trkpt lat="46.15858722" lon="7.15865635"><ele>519.8226928392</ele><time>2008-09-14T16:52:44Z</time></trkpt>
<trkpt lat="46.15700970" lon="7.15599302"><ele>518.8286742024</ele><time>2008-09-14T16:52:44Z</time></trkpt>
<trkpt lat="46.15791119" lon="7.15482382"><ele>519.8275147752</ele><time>2008-09-14T16:52:44Z</time></trkpt>
<trkpt lat="46.15760022" lon="7.15420894"><ele>520.8287352264</ele><time>2008-09-14T16:52:44Z</time></trkpt>
<trkpt lat="46.15709580" lon="7.15239635"><ele>520.831482084</ele><time>2008-09-14T16:52:44Z</time></trkpt>
<trkpt lat="46.15647507" lon="7.15164614"><ele>519.8335571304</ele><time>2008-09-14T16:52:44Z</time></trkpt>
<trkpt lat="46.15494999" lon="7.15093498"><ele>517.837829448</ele><time>2008-09-14T16:52:44Z</time></trkpt>
<trkpt lat="46.15544655" lon="7.14966515"><ele>520.837707624</ele><time>2008-09-14T16:52:44Z</time></trkpt>
<trkpt lat="46.15537427" lon="7.14932305"><ele>520.8381346488</ele><time>2008-09-14T16:52:44Z</time></trkpt>
<trkpt lat="46.15503930" lon="7.14863987"><ele>520.8395385576</ele><time>2008-09-14T16:52:44Z</time></trkpt>
<trkpt lat="46.15474828" lon="7.14655228"><ele>520.8419190456</ele><time>2008-09-14T16:52:44Z</time></trkpt>
<trkpt lat="46.15464934" lon="7.14511439"><ele>520.8433839144</ele><time>2008-09-14T16:52:44Z</time></trkpt>
<trkpt lat="46.15457579" lon="7.14429283"><ele>521.8442383008</ele><time>2008-09-14T16:52:44Z</time></trkpt>
<trkpt lat="46.15412214" lon="7.14374733"><ele>521.8457641296</ele><time>2008-09-14T16:52:44Z</time></trkpt>
<trkpt lat="46.15338216" lon="7.14292941"><ele>521.8482055776</ele><time>2008-09-14T16:52:44Z</time></trkpt>
<trkpt lat="46.15261648" lon="7.14139247"><ele>520.851318468</ele><time>2008-09-14T16:52:44Z</time></trkpt>
<trkpt lat="46.15230399" lon="7.14022979"><ele>521.8530272088</ele><time>2008-09-14T16:52:44Z</time></trkpt>
<trkpt lat="46.15144069" lon="7.13780306"><ele>524.8571168064</ele><time>2008-09-14T16:52:44Z</time></trkpt>
<trkpt lat="46.15098554" lon="7.13670971"><ele>521.8591308288</ele><time>2008-09-14T16:52:44Z</time></trkpt>
<trkpt lat="46.15007429" lon="7.13418062"><ele>520.8634031784</ele><time>2008-09-14T16:52:44Z</time></trkpt>
<trkpt lat="46.14995017" lon="7.13229783"><ele>520.8652953768</ele><time>2008-09-14T16:52:44Z</time></trkpt>
<trkpt lat="46.14982883" lon="7.13144239"><ele>520.866271956</ele><time>2008-09-14T16:52:44Z</time></trkpt>
<trkpt lat="46.14858839" lon="7.13042207"><ele>519.870056016</ele><time>2008-09-14T16:52:44Z</time></trkpt>
<trkpt lat="46.14801577" lon="7.12991166"><ele>519.8718872544</ele><time>2008-09-14T16:52:44Z</time></trkpt>
<trkpt lat="46.14737250" lon="7.12967561"><ele>517.873596204</ele><time>2008-09-14T16:52:44Z</time></trkpt>
<trkpt lat="46.14701427" lon="7.12923248"><ele>517.874816928</ele><time>2008-09-14T16:52:44Z</time></trkpt>
<trkpt lat="46.14677466" lon="7.12865171"><ele>518.8758544992</ele><time>2008-09-14T16:52:44Z</time></trkpt>
<trkpt lat="46.14641472" lon="7.12759223"><ele>520.8776245368</ele><time>2008-09-14T16:52:44Z</time></trkpt>
<trkpt lat="46.14593634" lon="7.12673890"><ele>521.8794555024</ele><time>2008-09-14T16:52:44Z</time></trkpt>
<trkpt lat="46.14569614" lon="7.12595270"><ele>521.8806762264</ele><time>2008-09-14T16:52:44Z</time></trkpt>
<trkpt lat="46.14574194" lon="7.12530183"><ele>525.8811033792</ele><time>2008-09-14T16:52:44Z</time></trkpt>
<trkpt lat="46.14576392" lon="7.12465110"><ele>527.8815917328</ele><time>2008-09-14T16:52:44Z</time></trkpt>
<trkpt lat="46.14590596" lon="7.12437633"><ele>531.881469636</ele><time>2008-09-14T16:52:44Z</time></trkpt>
<trkpt lat="46.14532957" lon="7.12253058"><ele>529.8843993096</ele><time>2008-09-14T16:52:44Z</time></trkpt>
<trkpt lat="46.14448804" lon="7.11952220"><ele>530.888915868</ele><time>2008-09-14T16:52:44Z</time></trkpt>
<trkpt lat="46.14436845" lon="7.11931745"><ele>531.8893432296</ele><time>2008-09-14T16:52:44Z</time></trkpt>
<trkpt lat="46.14460529" lon="7.11890516"><ele>539.8891603008</ele><time>2008-09-14T16:52:44Z</time></trkpt>
<trkpt lat="46.14424760" lon="7.11866757"><ele>541.890197904</ele><time>2008-09-14T16:52:44Z</time></trkpt>
<trkpt lat="46.14379481" lon="7.11846479"><ele>541.8914183232</ele><time>2008-09-14T16:52:44Z</time></trkpt>
<trkpt lat="46.14353163" lon="7.11798696"><ele>544.8924559584</ele><time>2008-09-14T16:52:44Z</time></trkpt>
<trkpt lat="46.14314956" lon="7.11754408"><ele>544.8937376424</ele><time>2008-09-14T16:52:44Z</time></trkpt>
<trkpt lat="46.14314887" lon="7.11730440"><ele>546.8939208912</ele><time>2008-09-14T16:52:44Z</time></trkpt>
<trkpt lat="46.14329080" lon="7.11699539"><ele>551.8938597864</ele><time>2008-09-14T16:52:44Z</time></trkpt>
<trkpt lat="46.14319481" lon="7.11672203"><ele>550.894287084</ele><time>2008-09-14T16:52:44Z</time></trkpt>
<trkpt lat="46.14331322" lon="7.11651589"><ele>552.894226188</ele><time>2008-09-14T16:52:44Z</time></trkpt>
<trkpt lat="46.14293232" lon="7.11648390"><ele>554.8951415664</ele><time>2008-09-14T16:52:44Z</time></trkpt>
<trkpt lat="46.14266973" lon="7.11621154"><ele>557.8959960168</ele><time>2008-09-14T16:52:44Z</time></trkpt>
<trkpt lat="46.14271723" lon="7.11617701"><ele>558.8959350888</ele><time>2008-09-14T16:52:44Z</time></trkpt>
<trkpt lat="46.14288315" lon="7.11593634"><ele>561.89569104</ele><time>2008-09-14T16:52:44Z</time></trkpt>
<trkpt lat="46.14312007" lon="7.11555829"><ele>568.8954468144</ele><time>2008-09-14T16:52:44Z</time></trkpt>
<trkpt lat="46.14326238" lon="7.11538624"><ele>572.8952637576</ele><time>2008-09-14T16:52:44Z</time></trkpt>
<trkpt lat="46.14409481" lon="7.11517584"><ele>581.8934325024</ele><time>2008-09-14T16:52:44Z</time></trkpt>
<trkpt lat="46.14452322" lon="7.11517329"><ele>586.8924560832</ele><time>2008-09-14T16:52:44Z</time></trkpt>
<trkpt lat="46.14437894" lon="7.11466052"><ele>592.8931884048</ele><time>2008-09-14T16:52:44Z</time></trkpt>
<trkpt lat="46.14402194" lon="7.11466265"><ele>588.894042936</ele><time>2008-09-14T16:52:44Z</time></trkpt>
<trkpt lat="46.14380615" lon="7.11411607"><ele>598.8950195304</ele><time>2008-09-14T16:52:44Z</time></trkpt>
<trkpt lat="46.14363876" lon="7.11384314"><ele>600.895629804</ele><time>2008-09-14T16:52:44Z</time></trkpt>
<trkpt lat="46.14328165" lon="7.11381104"><ele>600.8965454232</ele><time>2008-09-14T16:52:44Z</time></trkpt>
<trkpt lat="46.14306794" lon="7.11398352"><ele>593.8969115688</ele><time>2008-09-14T16:52:44Z</time></trkpt>
<trkpt lat="46.14192205" lon="7.11279196"><ele>593.9006347008</ele><time>2008-09-14T16:52:44Z</time></trkpt>
<trkpt lat="46.14177736" lon="7.11214226"><ele>593.90148936</ele><time>2008-09-14T16:52:44Z</time></trkpt>
<trkpt lat="46.14201168" lon="7.11087397"><ele>608.90197752</ele><time>2008-09-14T16:52:44Z</time></trkpt>
<trkpt lat="46.14188938" lon="7.10974478"><ele>617.9031982272</ele><time>2008-09-14T16:52:44Z</time></trkpt>
<trkpt lat="46.14329961" lon="7.11179071"><ele>634.8981323856</ele><time>2008-09-14T16:52:44Z</time></trkpt>
<trkpt lat="46.14372891" lon="7.11209630"><ele>641.8968506208</ele><time>2008-09-14T16:52:44Z</time></trkpt>
<trkpt lat="46.14380051" lon="7.11216435"><ele>641.896667436</ele><time>2008-09-14T16:52:44Z</time></trkpt>
<trkpt lat="46.14365612" lon="7.11161736"><ele>646.8974609904</ele><time>2008-09-14T16:52:44Z</time></trkpt>
<trkpt lat="46.14365333" lon="7.11065862"><ele>656.8982544</ele><time>2008-09-14T16:52:44Z</time></trkpt>
<trkpt lat="46.14350693" lon="7.10942682"><ele>668.8995971232</ele><time>2008-09-14T16:52:44Z</time></trkpt>
<trkpt lat="46.14388844" lon="7.10966420"><ele>677.8984986072</ele><time>2008-09-14T16:52:44Z</time></trkpt>
<trkpt lat="46.14410384" lon="7.11007380"><ele>677.897643948</ele><time>2008-09-14T16:52:44Z</time></trkpt>
<trkpt lat="46.14439035" lon="7.11038024"><ele>682.8967284888</ele><time>2008-09-14T16:52:44Z</time></trkpt>
<trkpt lat="46.14434075" lon="7.10969571"><ele>692.8973999784</ele><time>2008-09-14T16:52:44Z</time></trkpt>
<trkpt lat="46.14419644" lon="7.10918296"><ele>696.8981935008</ele><time>2008-09-14T16:52:44Z</time></trkpt>
<trkpt lat="46.14405234" lon="7.10873869"><ele>699.8988647664</ele><time>2008-09-14T16:52:44Z</time></trkpt>
<trkpt lat="46.14371783" lon="7.10829559"><ele>710.9000855376</ele><time>2008-09-14T16:52:44Z</time></trkpt>
<trkpt lat="46.14340691" lon="7.10778386"><ele>713.9012450928</ele><time>2008-09-14T16:52:44Z</time></trkpt>
<trkpt lat="46.14323890" lon="7.10730551"><ele>726.9020385984</ele><time>2008-09-14T16:52:44Z</time></trkpt>
<trkpt lat="46.14285789" lon="7.10723935"><ele>721.9029540576</ele><time>2008-09-14T16:52:44Z</time></trkpt>
<trkpt lat="46.14257218" lon="7.10720685"><ele>724.903686588</ele><time>2008-09-14T16:52:44Z</time></trkpt>
<trkpt lat="46.14211926" lon="7.10696993"><ele>725.904968304</ele><time>2008-09-14T16:52:44Z</time></trkpt>
<trkpt lat="46.14197555" lon="7.10666265"><ele>726.9055785456</ele><time>2008-09-14T16:52:44Z</time></trkpt>
<trkpt lat="46.14180774" lon="7.10625279"><ele>732.906311172</ele><time>2008-09-14T16:52:44Z</time></trkpt>
<trkpt lat="46.14147311" lon="7.10577548"><ele>729.90747084</ele><time>2008-09-14T16:52:44Z</time></trkpt>
<trkpt lat="46.14125779" lon="7.10540016"><ele>730.9083252264</ele><time>2008-09-14T16:52:44Z</time></trkpt>
<trkpt lat="46.14104247" lon="7.10502484"><ele>731.9091186528</ele><time>2008-09-14T16:52:44Z</time></trkpt>
<trkpt lat="46.14056646" lon="7.10502776"><ele>715.9102782096</ele><time>2008-09-14T16:52:44Z</time></trkpt>
<trkpt lat="46.14032611" lon="7.10424174"><ele>721.9114991256</ele><time>2008-09-14T16:52:44Z</time></trkpt>
<trkpt lat="46.14011089" lon="7.10390067"><ele>720.912292488</ele><time>2008-09-14T16:52:44Z</time></trkpt>
<trkpt lat="46.13991845" lon="7.10321708"><ele>716.913330204</ele><time>2008-09-14T16:52:44Z</time></trkpt>
<trkpt lat="46.13991763" lon="7.10294317"><ele>711.9135741888</ele><time>2008-09-14T16:52:44Z</time></trkpt>
<trkpt lat="46.13991630" lon="7.10249807"><ele>710.9139405264</ele><time>2008-09-14T16:52:44Z</time></trkpt>
<trkpt lat="46.13991374" lon="7.10164211"><ele>721.9146117432</ele><time>2008-09-14T16:52:44Z</time></trkpt>
<trkpt lat="46.13976929" lon="7.10109519"><ele>727.9154053296</ele><time>2008-09-14T16:52:44Z</time></trkpt>
<trkpt lat="46.13948297" lon="7.10085730"><ele>732.916320804</ele><time>2008-09-14T16:52:44Z</time></trkpt>
<trkpt lat="46.13900655" lon="7.10072330"><ele>736.917541656</ele><time>2008-09-14T16:52:44Z</time></trkpt>
<trkpt lat="46.13867252" lon="7.10045148"><ele>733.9185790992</ele><time>2008-09-14T16:52:44Z</time></trkpt>
<trkpt lat="46.13855197" lon="7.09993865"><ele>737.9193116616</ele><time>2008-09-14T16:52:44Z</time></trkpt>
<trkpt lat="46.13843214" lon="7.09966550"><ele>737.9197999512</ele><time>2008-09-14T16:52:44Z</time></trkpt>
<trkpt lat="46.13802619" lon="7.09922294"><ele>727.92114258</ele><time>2008-09-14T16:52:44Z</time></trkpt>
<trkpt lat="46.13811974" lon="7.09867455"><ele>726.9213866928</ele><time>2008-09-14T16:52:44Z</time></trkpt>
<trkpt lat="46.13811849" lon="7.09826370"><ele>722.9216919744</ele><time>2008-09-14T16:52:44Z</time></trkpt>
<trkpt lat="46.13783081" lon="7.09758075"><ele>719.9229735624</ele><time>2008-09-14T16:52:44Z</time></trkpt>
<trkpt lat="46.13775785" lon="7.09706764"><ele>723.9235839</ele><time>2008-09-14T16:52:44Z</time></trkpt>
<trkpt lat="46.13766130" lon="7.09662316"><ele>725.9241332136</ele><time>2008-09-14T16:52:44Z</time></trkpt>
<trkpt lat="46.13742392" lon="7.09683008"><ele>713.924560464</ele><time>2008-09-14T16:52:44Z</time></trkpt>
<trkpt lat="46.13747318" lon="7.09737756"><ele>708.9239500944</ele><time>2008-09-14T16:52:44Z</time></trkpt>
<trkpt lat="46.13740282" lon="7.09772038"><ele>702.9238892472</ele><time>2008-09-14T16:52:44Z</time></trkpt>
<trkpt lat="46.13728340" lon="7.09758418"><ele>699.9242555208</ele><time>2008-09-14T16:52:44Z</time></trkpt>
<trkpt lat="46.13704404" lon="7.09714060"><ele>693.925170948</ele><time>2008-09-14T16:52:44Z</time></trkpt>
<trkpt lat="46.13701941" lon="7.09686685"><ele>692.9254760208</ele><time>2008-09-14T16:52:44Z</time></trkpt>
<trkpt lat="46.13699467" lon="7.09655888"><ele>699.9257813496</ele><time>2008-09-14T16:52:44Z</time></trkpt>
<trkpt lat="46.13689905" lon="7.09642253"><ele>698.9261473824</ele><time>2008-09-14T16:52:44Z</time></trkpt>
<trkpt lat="46.13677911" lon="7.09611515"><ele>700.926696696</ele><time>2008-09-14T16:52:44Z</time></trkpt>
<trkpt lat="46.13656345" lon="7.09563720"><ele>708.9276122664</ele><time>2008-09-14T16:52:44Z</time></trkpt>
<trkpt lat="46.13642023" lon="7.09550115"><ele>714.9280394832</ele><time>2008-09-14T16:52:44Z</time></trkpt>
<trkpt lat="46.13615842" lon="7.09550281"><ele>711.9286499016</ele><time>2008-09-14T16:52:44Z</time></trkpt>
<trkpt lat="46.13568148" lon="7.09519769"><ele>718.9300537296</ele><time>2008-09-14T16:52:44Z</time></trkpt>
<trkpt lat="46.13556279" lon="7.09530115"><ele>714.9302367864</ele><time>2008-09-14T16:52:44Z</time></trkpt>
<trkpt lat="46.13487309" lon="7.09547668"><ele>705.931762632</ele><time>2008-09-14T16:52:44Z</time></trkpt>
<trkpt lat="46.13449166" lon="7.09527368"><ele>708.9328002672</ele><time>2008-09-14T16:52:44Z</time></trkpt>
<trkpt lat="46.13430125" lon="7.09527488"><ele>701.9332886376</ele><time>2008-09-14T16:52:44Z</time></trkpt>
<trkpt lat="46.13396574" lon="7.09452382"><ele>695.9346923544</ele><time>2008-09-14T16:52:44Z</time></trkpt>
<trkpt lat="46.13377313" lon="7.09380610"><ele>674.9357298312</ele><time>2008-09-14T16:52:44Z</time></trkpt>
<trkpt lat="46.13391426" lon="7.09325744"><ele>678.935852184</ele><time>2008-09-14T16:52:44Z</time></trkpt>
<trkpt lat="46.13379378" lon="7.09277892"><ele>679.9365233856</ele><time>2008-09-14T16:52:44Z</time></trkpt>
<trkpt lat="46.13355451" lon="7.09236962"><ele>673.9374388128</ele><time>2008-09-14T16:52:44Z</time></trkpt>
<trkpt lat="46.13336253" lon="7.09185732"><ele>675.938354496</ele><time>2008-09-14T16:52:44Z</time></trkpt>
<trkpt lat="46.13321856" lon="7.09148166"><ele>680.9389648656</ele><time>2008-09-14T16:52:44Z</time></trkpt>
<trkpt lat="46.13309850" lon="7.09114008"><ele>682.9395751392</ele><time>2008-09-14T16:52:44Z</time></trkpt>
<trkpt lat="46.13293105" lon="7.09086727"><ele>683.9401856856</ele><time>2008-09-14T16:52:44Z</time></trkpt>
<trkpt lat="46.13254929" lon="7.09056160"><ele>677.9413452576</ele><time>2008-09-14T16:52:44Z</time></trkpt>
<trkpt lat="46.13223914" lon="7.09032395"><ele>669.9422606208</ele><time>2008-09-14T16:52:44Z</time></trkpt>
<trkpt lat="46.13200029" lon="7.09005161"><ele>669.94305432</ele><time>2008-09-14T16:52:44Z</time></trkpt>
<trkpt lat="46.13178523" lon="7.08977911"><ele>673.9437865776</ele><time>2008-09-14T16:52:44Z</time></trkpt>
<trkpt lat="46.13169003" lon="7.08977972"><ele>669.9440308992</ele><time>2008-09-14T16:52:44Z</time></trkpt>
<trkpt lat="46.13169046" lon="7.08991666"><ele>662.9439087552</ele><time>2008-09-14T16:52:44Z</time></trkpt>
<trkpt lat="46.13171468" lon="7.09005344"><ele>656.9437256832</ele><time>2008-09-14T16:52:44Z</time></trkpt>
<trkpt lat="46.13190583" lon="7.09029185"><ele>654.9431151048</ele><time>2008-09-14T16:52:44Z</time></trkpt>
<trkpt lat="46.13207349" lon="7.09063311"><ele>648.9424437432</ele><time>2008-09-14T16:52:44Z</time></trkpt>
<trkpt lat="46.13240828" lon="7.09114448"><ele>647.941223292</ele><time>2008-09-14T16:52:44Z</time></trkpt>
<trkpt lat="46.13217028" lon="7.09114600"><ele>637.9417725264</ele><time>2008-09-14T16:52:44Z</time></trkpt>
<trkpt lat="46.13171637" lon="7.09060116"><ele>635.9432982912</ele><time>2008-09-14T16:52:44Z</time></trkpt>
<trkpt lat="46.13171637" lon="7.09060116"><ele>635.9432982912</ele><time>2008-09-14T16:52:44Z</time></trkpt>
<trkpt lat="46.13200430" lon="7.09135247"><ele>622.942016496</ele><time>2008-09-14T16:52:44Z</time></trkpt>
<trkpt lat="46.13205212" lon="7.09142063"><ele>622.941833616</ele><time>2008-09-14T16:52:44Z</time></trkpt>
<trkpt lat="46.13169363" lon="7.09094365"><ele>622.94305434</ele><time>2008-09-14T16:52:44Z</time></trkpt>
<trkpt lat="46.13143108" lon="7.09070569"><ele>619.9439085984</ele><time>2008-09-14T16:52:44Z</time></trkpt>
<trkpt lat="46.13140728" lon="7.09070584"><ele>618.9439698312</ele><time>2008-09-14T16:52:44Z</time></trkpt>
<trkpt lat="46.13150343" lon="7.09101333"><ele>611.9434813176</ele><time>2008-09-14T16:52:44Z</time></trkpt>
<trkpt lat="46.13162318" lon="7.09125220"><ele>608.9429932368</ele><time>2008-09-14T16:52:44Z</time></trkpt>
<trkpt lat="46.13171891" lon="7.09142276"><ele>607.9426268352</ele><time>2008-09-14T16:52:44Z</time></trkpt>
<trkpt lat="46.13176693" lon="7.09155938"><ele>606.9423829632</ele><time>2008-09-14T16:52:44Z</time></trkpt>
<trkpt lat="46.13176735" lon="7.09169632"><ele>603.9422606424</ele><time>2008-09-14T16:52:44Z</time></trkpt>
<trkpt lat="46.13176746" lon="7.09173055"><ele>602.9422606104</ele><time>2008-09-14T16:52:44Z</time></trkpt>
<trkpt lat="46.13176756" lon="7.09176478"><ele>602.9421996504</ele><time>2008-09-14T16:52:44Z</time></trkpt>
<trkpt lat="46.13176767" lon="7.09179902"><ele>601.9421996184</ele><time>2008-09-14T16:52:44Z</time></trkpt>
<trkpt lat="46.13162486" lon="7.09179993"><ele>596.942504868</ele><time>2008-09-14T16:52:44Z</time></trkpt>
<trkpt lat="46.13143351" lon="7.09149304"><ele>595.9432372704</ele><time>2008-09-14T16:52:44Z</time></trkpt>
<trkpt lat="46.13140971" lon="7.09149320"><ele>594.9432981984</ele><time>2008-09-14T16:52:44Z</time></trkpt>
<trkpt lat="46.13131387" lon="7.09128841"><ele>597.943664664</ele><time>2008-09-14T16:52:44Z</time></trkpt>
<trkpt lat="46.13124215" lon="7.09118616"><ele>598.9439698008</ele><time>2008-09-14T16:52:44Z</time></trkpt>
<trkpt lat="46.13121835" lon="7.09118632"><ele>597.9439697688</ele><time>2008-09-14T16:52:44Z</time></trkpt>
<trkpt lat="46.13121835" lon="7.09118632"><ele>597.9439697688</ele><time>2008-09-14T16:52:44Z</time></trkpt>
<trkpt lat="46.13121857" lon="7.09125478"><ele>595.9439697048</ele><time>2008-09-14T16:52:44Z</time></trkpt>
<trkpt lat="46.13121952" lon="7.09156288"><ele>587.9436646488</ele><time>2008-09-14T16:52:44Z</time></trkpt>
<trkpt lat="46.13124374" lon="7.09169966"><ele>584.9435426328</ele><time>2008-09-14T16:52:44Z</time></trkpt>
<trkpt lat="46.13126775" lon="7.09176797"><ele>583.943420376</ele><time>2008-09-14T16:52:44Z</time></trkpt>
<trkpt lat="46.13129187" lon="7.09187052"><ele>583.9432371912</ele><time>2008-09-14T16:52:44Z</time></trkpt>
<trkpt lat="46.13131598" lon="7.09197306"><ele>582.9431152392</ele><time>2008-09-14T16:52:44Z</time></trkpt>
<trkpt lat="46.13131619" lon="7.09204153"><ele>582.9430542792</ele><time>2008-09-14T16:52:44Z</time></trkpt>
<trkpt lat="46.13129260" lon="7.09211015"><ele>580.9430542152</ele><time>2008-09-14T16:52:44Z</time></trkpt>
<trkpt lat="46.13119751" lon="7.09214499"><ele>575.94323724</ele><time>2008-09-14T16:52:44Z</time></trkpt>
<trkpt lat="46.13117371" lon="7.09214514"><ele>574.9432984728</ele><time>2008-09-14T16:52:44Z</time></trkpt>
<trkpt lat="46.13091116" lon="7.09190718"><ele>569.944152972</ele><time>2008-09-14T16:52:44Z</time></trkpt>
<trkpt lat="46.13069611" lon="7.09163468"><ele>569.9448851016</ele><time>2008-09-14T16:52:44Z</time></trkpt>
<trkpt lat="46.13036259" lon="7.09153411"><ele>564.9457396008</ele><time>2008-09-14T16:52:44Z</time></trkpt>
<trkpt lat="46.13019598" lon="7.09153518"><ele>561.9461671392</ele><time>2008-09-14T16:52:44Z</time></trkpt>
<trkpt lat="46.12986183" lon="7.09122922"><ele>560.9472046464</ele><time>2008-09-14T16:52:44Z</time></trkpt>
<trkpt lat="46.12974303" lon="7.09129844"><ele>555.9474486312</ele><time>2008-09-14T16:52:44Z</time></trkpt>
<trkpt lat="46.12931357" lon="7.09095886"><ele>549.948730428</ele><time>2008-09-14T16:52:44Z</time></trkpt>
<trkpt lat="46.12885998" lon="7.09051674"><ele>545.9501951688</ele><time>2008-09-14T16:52:44Z</time></trkpt>
<trkpt lat="46.12857437" lon="7.09051857"><ele>538.950866724</ele><time>2008-09-14T16:52:44Z</time></trkpt>
<trkpt lat="46.12835964" lon="7.09034879"><ele>532.9514770464</ele><time>2008-09-14T16:52:44Z</time></trkpt>
<trkpt lat="46.12752141" lon="7.08867683"><ele>526.9548948816</ele><time>2008-09-14T16:52:44Z</time></trkpt>
<trkpt lat="46.12627866" lon="7.08704176"><ele>521.959167408</ele><time>2008-09-14T16:52:44Z</time></trkpt>
<trkpt lat="46.12565760" lon="7.08632695"><ele>511.961242776</ele><time>2008-09-14T16:52:44Z</time></trkpt>
<trkpt lat="46.12537189" lon="7.08629457"><ele>510.9619446984</ele><time>2008-09-14T16:52:44Z</time></trkpt>
<trkpt lat="46.12525310" lon="7.08636380"><ele>509.9621888112</ele><time>2008-09-14T16:52:44Z</time></trkpt>
<trkpt lat="46.12482222" lon="7.08557931"><ele>509.96386704</ele><time>2008-09-14T16:52:44Z</time></trkpt>
<trkpt lat="46.12458411" lon="7.08554663"><ele>509.9644470744</ele><time>2008-09-14T16:52:44Z</time></trkpt>
<trkpt lat="46.12437001" lon="7.08558225"><ele>508.964935332</ele><time>2008-09-14T16:52:44Z</time></trkpt>
<trkpt lat="46.12446747" lon="7.08630043"><ele>508.9641114576</ele><time>2008-09-14T16:52:44Z</time></trkpt>
<trkpt lat="46.12468339" lon="7.08684670"><ele>508.9631348784</ele><time>2008-09-14T16:52:44Z</time></trkpt>
<trkpt lat="46.12712014" lon="7.09751099"><ele>512.9485472784</ele><time>2008-09-14T16:52:44Z</time></trkpt>
<trkpt lat="46.12894341" lon="7.10229204"><ele>511.940216148</ele><time>2008-09-14T16:52:44Z</time></trkpt>
<trkpt lat="46.13405334" lon="7.11605724"><ele>511.916656632</ele><time>2008-09-14T16:52:44Z</time></trkpt>
<trkpt lat="46.13571039" lon="7.12125132"><ele>511.9083861888</ele><time>2008-09-14T16:52:44Z</time></trkpt>
<trkpt lat="46.13741859" lon="7.12781492"><ele>511.8988648464</ele><time>2008-09-14T16:52:44Z</time></trkpt>
<trkpt lat="46.13849734" lon="7.13061627"><ele>512.8939819824</ele><time>2008-09-14T16:52:44Z</time></trkpt>
<trkpt lat="46.14303772" lon="7.13733598"><ele>516.8775634488</ele><time>2008-09-14T16:52:44Z</time></trkpt>
<trkpt lat="46.14571721" lon="7.14252598"><ele>513.8668212864</ele><time>2008-09-14T16:52:44Z</time></trkpt>
<trkpt lat="46.14713041" lon="7.14594262"><ele>513.8606567064</ele><time>2008-09-14T16:52:44Z</time></trkpt>
<trkpt lat="46.15471838" lon="7.16299157"><ele>515.8283080416</ele><time>2008-09-14T16:52:44Z</time></trkpt>
<trkpt lat="46.15644261" lon="7.16733247"><ele>515.8205566728</ele><time>2008-09-14T16:52:44Z</time></trkpt>
<trkpt lat="46.15783638" lon="7.17290828"><ele>515.8125611592</ele><time>2008-09-14T16:52:44Z</time></trkpt>
<trkpt lat="46.15907200" lon="7.18228697"><ele>516.80175786</ele><time>2008-09-14T16:52:44Z</time></trkpt>
<trkpt lat="46.16063529" lon="7.18950673"><ele>517.79193114</ele><time>2008-09-14T16:52:44Z</time></trkpt>
<trkpt lat="46.16547873" lon="7.18417499"><ele>516.7848512136</ele><time>2008-09-14T16:52:44Z</time></trkpt>
<trkpt lat="46.16638168" lon="7.18351990"><ele>516.78326412</ele><time>2008-09-14T16:52:44Z</time></trkpt>
<trkpt lat="46.16895098" lon="7.18299396"><ele>517.7775878616</ele><time>2008-09-14T16:52:44Z</time></trkpt>
<trkpt lat="46.16937931" lon="7.18295769"><ele>522.7765501776</ele><time>2008-09-14T16:52:44Z</time></trkpt>
<trkpt lat="46.16937869" lon="7.18268363"><ele>526.7767944504</ele><time>2008-09-14T16:52:44Z</time></trkpt>
<trkpt lat="46.16897275" lon="7.18210318"><ele>519.7782594</ele><time>2008-09-14T16:52:44Z</time></trkpt>
<trkpt lat="46.16887590" lon="7.18138424"><ele>519.7791137544</ele><time>2008-09-14T16:52:44Z</time></trkpt>
<trkpt lat="46.16946825" lon="7.18021668"><ele>520.7786254968</ele><time>2008-09-14T16:52:44Z</time></trkpt>
<trkpt lat="46.16937013" lon="7.17894962"><ele>520.7799681408</ele><time>2008-09-14T16:52:44Z</time></trkpt>
</trkseg></trk></gpx>